ENT7381 EPPO-HEMA

Flight info

Callsign ENT7381
Flight time N/A
Altitude 35000
Route XIDNA DCT REGLI DCT UPIVA DCT PATAK DCT TPS DCT PARAK DCT NISVA DCT VANET/N0445F370 DCT NIKTI DCT PAXIS DCT NABSI DCT LOTOB DCT KUNKI DCT AST DCT LXR M999 ELELI V730 ALKUN ALKUN1E
Aircraft B738/M-DFGHIJ1LORVWXY/EB1

Departure

Time 2026-04-21 03:53
Airport Poznań-Ławica Airport (EPPO)

Arrival

Time N/A
Airport Marsa Alam International Airport (HEMA)
Time Latitude Longitude Altitude Speed Heading
2026-04-21 02:53 52.41504 16.83525 291 ft 0 kts 193°
2026-04-21 03:42 52.41516 16.83529 287 ft 4 kts 193°
2026-04-21 03:43 52.41541 16.83540 287 ft 4 kts 200°
2026-04-21 03:43 52.41564 16.83560 287 ft 4 kts 236°
2026-04-21 03:43 52.41569 16.83578 287 ft 0 kts 273°
2026-04-21 03:46 52.41569 16.83574 287 ft 2 kts 273°
2026-04-21 03:46 52.41573 16.83522 291 ft 8 kts 281°
2026-04-21 03:46 52.41589 16.83400 289 ft 14 kts 282°
2026-04-21 03:47 52.41615 16.83212 292 ft 19 kts 283°
2026-04-21 03:47 52.41643 16.83008 291 ft 12 kts 282°
2026-04-21 03:47 52.41658 16.82904 287 ft 7 kts 287°
2026-04-21 03:47 52.41691 16.82846 287 ft 7 kts 339°
2026-04-21 03:48 52.41738 16.82859 287 ft 7 kts 18°
2026-04-21 03:48 52.41785 16.82884 287 ft 7 kts 18°
2026-04-21 03:48 52.41841 16.82911 289 ft 9 kts
2026-04-21 03:48 52.41891 16.82843 291 ft 11 kts 289°
2026-04-21 03:49 52.41916 16.82709 291 ft 14 kts 287°
2026-04-21 03:49 52.41947 16.82552 290 ft 15 kts 288°
2026-04-21 03:49 52.41981 16.82374 287 ft 17 kts 287°
2026-04-21 03:49 52.42019 16.82177 290 ft 19 kts 288°
2026-04-21 03:50 52.42060 16.81963 291 ft 20 kts 287°
2026-04-21 03:50 52.42106 16.81730 292 ft 23 kts 288°
2026-04-21 03:50 52.42158 16.81457 289 ft 27 kts 288°
2026-04-21 03:50 52.42213 16.81172 287 ft 26 kts 287°
2026-04-21 03:51 52.42265 16.80903 287 ft 22 kts 288°
2026-04-21 03:51 52.42301 16.80710 287 ft 17 kts 287°
2026-04-21 03:51 52.42343 16.80572 287 ft 11 kts 326°
2026-04-21 03:51 52.42417 16.80577 287 ft 11 kts 18°
2026-04-21 03:52 52.42480 16.80634 290 ft 11 kts 65°
2026-04-21 03:52 52.42471 16.80726 292 ft 0 kts 108°
2026-04-21 03:52 52.42470 16.80733 288 ft 4 kts 107°
2026-04-21 03:53 52.42398 16.81106 291 ft 75 kts 108°
2026-04-21 03:53 52.42164 16.82325 292 ft 146 kts 107°
2026-04-21 03:53 52.41810 16.84119 762 ft 167 kts 105°
2026-04-21 03:53 52.41455 16.85943 1694 ft 169 kts 105°
2026-04-21 03:54 52.41094 16.87797 2579 ft 170 kts 104°
2026-04-21 03:54 52.40742 16.89614 3534 ft 164 kts 105°
2026-04-21 03:54 52.40379 16.91506 4078 ft 190 kts 105°
2026-04-21 03:54 52.39956 16.93687 4369 ft 213 kts 105°
2026-04-21 03:55 52.39499 16.96064 4963 ft 223 kts 105°
2026-04-21 03:55 52.39030 16.98507 5650 ft 226 kts 105°
2026-04-21 03:55 52.38555 17.00942 6177 ft 222 kts 105°
2026-04-21 03:55 52.38077 17.03396 6921 ft 229 kts 105°
2026-04-21 03:56 52.37591 17.05895 7758 ft 231 kts 105°
2026-04-21 03:56 52.36921 17.08355 8329 ft 252 kts 127°
2026-04-21 03:56 52.35411 17.09993 8703 ft 280 kts 163°
2026-04-21 03:56 52.33433 17.10156 9465 ft 289 kts 182°
2026-04-21 03:57 52.31414 17.09846 10249 ft 295 kts 184°
2026-04-21 03:57 52.29331 17.09458 10744 ft 313 kts 184°
2026-04-21 03:57 52.27075 17.09035 10946 ft 338 kts 184°
2026-04-21 03:57 52.24674 17.08597 11403 ft 352 kts 184°
2026-04-21 03:58 52.22212 17.08162 12118 ft 358 kts 184°
2026-04-21 03:58 52.19724 17.07735 12914 ft 361 kts 184°
2026-04-21 03:58 52.17207 17.07313 13669 ft 365 kts 184°
2026-04-21 03:58 52.14671 17.06895 14388 ft 369 kts 183°
2026-04-21 03:59 52.12102 17.06477 15091 ft 373 kts 183°
2026-04-21 03:59 52.09498 17.06057 15794 ft 376 kts 183°
2026-04-21 03:59 52.06874 17.05634 16470 ft 380 kts 183°
2026-04-21 04:00 52.01582 17.04785 17787 ft 387 kts 183°
2026-04-21 04:00 51.98871 17.04351 18398 ft 392 kts 183°
2026-04-21 04:00 51.96151 17.03915 19047 ft 394 kts 184°
2026-04-21 04:00 51.93411 17.03476 19683 ft 397 kts 184°
2026-04-21 04:01 51.90650 17.03034 20275 ft 400 kts 184°
2026-04-21 04:01 51.87864 17.02589 20826 ft 404 kts 184°
2026-04-21 04:01 51.85084 17.02146 21362 ft 408 kts 184°
2026-04-21 04:01 51.82251 17.01695 21896 ft 411 kts 184°
2026-04-21 04:02 51.79393 17.01240 22420 ft 414 kts 184°
2026-04-21 04:02 51.76513 17.00783 22950 ft 417 kts 184°
2026-04-21 04:02 51.73605 17.00325 23453 ft 420 kts 183°
2026-04-21 04:02 51.70681 17.00316 23891 ft 421 kts 173°
2026-04-21 04:03 51.67785 17.01118 24342 ft 422 kts 163°
2026-04-21 04:03 51.65004 17.02649 24797 ft 423 kts 157°
2026-04-21 04:03 51.62285 17.04360 25217 ft 426 kts 156°
2026-04-21 04:03 51.59514 17.06125 25617 ft 429 kts 156°
2026-04-21 04:04 51.56729 17.07896 26023 ft 432 kts 156°
2026-04-21 04:04 51.53919 17.09666 26414 ft 435 kts 157°
2026-04-21 04:04 51.51084 17.11433 26802 ft 438 kts 157°
2026-04-21 04:04 51.48229 17.13200 27161 ft 441 kts 157°
2026-04-21 04:05 51.45348 17.14974 27527 ft 443 kts 158°
2026-04-21 04:05 51.42458 17.16748 27891 ft 446 kts 158°
2026-04-21 04:05 51.39551 17.18529 28219 ft 448 kts 158°
2026-04-21 04:05 51.36622 17.20321 28530 ft 451 kts 158°
2026-04-21 04:06 51.33678 17.22118 28847 ft 454 kts 158°
2026-04-21 04:06 51.30757 17.23899 29154 ft 456 kts 158°
2026-04-21 04:06 51.27784 17.25710 29454 ft 458 kts 158°
2026-04-21 04:06 51.24792 17.27528 29772 ft 460 kts 158°
2026-04-21 04:07 51.21791 17.29350 30059 ft 462 kts 158°
2026-04-21 04:07 51.18773 17.31182 30317 ft 464 kts 158°
2026-04-21 04:07 51.15746 17.33018 30627 ft 465 kts 158°
2026-04-21 04:07 51.12750 17.34831 30980 ft 465 kts 158°
2026-04-21 04:08 51.09713 17.36666 31327 ft 464 kts 158°
2026-04-21 04:08 51.06685 17.38494 31616 ft 466 kts 158°
2026-04-21 04:08 51.03644 17.40327 31901 ft 466 kts 159°
2026-04-21 04:08 51.00650 17.42131 32219 ft 466 kts 159°
2026-04-21 04:09 50.97611 17.43958 32520 ft 466 kts 159°
2026-04-21 04:09 50.94568 17.45783 32787 ft 467 kts 159°
2026-04-21 04:09 50.91523 17.47608 33071 ft 467 kts 159°
2026-04-21 04:09 50.88479 17.49429 33365 ft 467 kts 159°
2026-04-21 04:10 50.85424 17.51255 33606 ft 468 kts 159°
2026-04-21 04:10 50.82366 17.53080 33820 ft 470 kts 159°
2026-04-21 04:10 50.79337 17.54885 34074 ft 471 kts 159°
2026-04-21 04:10 50.76271 17.56708 34369 ft 470 kts 159°
2026-04-21 04:11 50.73200 17.58533 34628 ft 470 kts 159°
2026-04-21 04:11 50.70124 17.60359 34872 ft 471 kts 159°
2026-04-21 04:11 50.67058 17.62177 35124 ft 471 kts 160°
2026-04-21 04:12 50.60900 17.65817 35136 ft 476 kts 160°
2026-04-21 04:12 50.54700 17.69470 35118 ft 473 kts 160°
2026-04-21 04:13 50.48562 17.73083 35120 ft 470 kts 160°
2026-04-21 04:13 50.42472 17.76656 35115 ft 469 kts 160°
2026-04-21 04:14 50.36363 17.80228 35107 ft 468 kts 160°
2026-04-21 04:14 50.30256 17.83786 35099 ft 468 kts 160°
2026-04-21 04:15 50.24149 17.87340 35104 ft 468 kts 160°
2026-04-21 04:15 50.18033 17.90889 35094 ft 469 kts 160°
2026-04-21 04:16 50.11942 17.94413 35100 ft 470 kts 160°
2026-04-21 04:16 50.05793 17.97962 35079 ft 472 kts 160°
2026-04-21 04:17 49.99633 18.01517 35091 ft 473 kts 160°
2026-04-21 04:17 49.93465 18.05109 35080 ft 473 kts 160°
2026-04-21 04:18 49.87301 18.08699 35080 ft 474 kts 160°
2026-04-21 04:18 49.81119 18.12283 35081 ft 474 kts 160°
2026-04-21 04:19 49.74970 18.15832 35075 ft 474 kts 160°
2026-04-21 04:19 49.68774 18.19400 35073 ft 474 kts 160°
2026-04-21 04:20 49.62580 18.22960 35072 ft 474 kts 160°
2026-04-21 04:20 49.56397 18.26505 35071 ft 474 kts 161°
2026-04-21 04:21 49.50251 18.30012 35078 ft 474 kts 161°
2026-04-21 04:21 49.44053 18.33542 35072 ft 474 kts 161°
2026-04-21 04:22 49.37860 18.37063 35059 ft 474 kts 161°
2026-04-21 04:22 49.31685 18.40563 35057 ft 474 kts 161°
2026-04-21 04:23 49.25490 18.44066 35050 ft 474 kts 161°
2026-04-21 04:23 49.19292 18.47556 35050 ft 474 kts 161°
2026-04-21 04:24 49.13130 18.51021 35047 ft 474 kts 162°
2026-04-21 04:24 49.06921 18.54502 35044 ft 475 kts 162°
2026-04-21 04:25 49.00717 18.57972 35055 ft 475 kts 162°
2026-04-21 04:25 48.94537 18.61420 35051 ft 476 kts 162°
2026-04-21 04:26 48.88315 18.64881 35053 ft 476 kts 162°
2026-04-21 04:26 48.83140 18.67752 35048 ft 476 kts 162°
2026-04-21 04:27 48.76905 18.71206 35044 ft 477 kts 162°
2026-04-21 04:27 48.70663 18.74652 35043 ft 477 kts 162°
2026-04-21 04:28 48.64406 18.78098 35044 ft 478 kts 162°
2026-04-21 04:28 48.58180 18.81518 35048 ft 478 kts 162°
2026-04-21 04:29 48.51964 18.85197 35037 ft 480 kts 160°
2026-04-21 04:29 48.45798 18.89091 35036 ft 479 kts 160°
2026-04-21 04:30 48.39676 18.92923 35038 ft 479 kts 160°
2026-04-21 04:30 48.33501 18.96729 35035 ft 479 kts 160°
2026-04-21 04:31 48.27324 19.00512 35034 ft 479 kts 160°
2026-04-21 04:31 48.21179 19.04269 35041 ft 479 kts 161°
2026-04-21 04:32 48.14994 19.08044 35033 ft 479 kts 161°
2026-04-21 04:32 48.08811 19.11807 35036 ft 479 kts 161°
2026-04-21 04:33 48.02602 19.15433 35031 ft 478 kts 162°
2026-04-21 04:33 47.96400 19.18827 35024 ft 478 kts 164°
2026-04-21 04:34 47.90143 19.22245 35029 ft 478 kts 164°
2026-04-21 04:34 47.83899 19.25682 35025 ft 479 kts 163°
2026-04-21 04:35 47.77647 19.29127 35031 ft 479 kts 163°
2026-04-21 04:35 47.71414 19.32552 35018 ft 479 kts 164°
2026-04-21 04:36 47.65149 19.35987 35019 ft 480 kts 164°
2026-04-21 04:36 47.58874 19.39418 35019 ft 480 kts 164°
2026-04-21 04:37 47.52600 19.42839 35021 ft 481 kts 164°
2026-04-21 04:37 47.46333 19.46190 35021 ft 480 kts 165°
2026-04-21 04:38 47.39989 19.49345 35021 ft 480 kts 166°
2026-04-21 04:38 47.33627 19.52466 35012 ft 480 kts 166°
2026-04-21 04:39 47.27323 19.55576 35021 ft 480 kts 166°
2026-04-21 04:39 47.20989 19.58710 35023 ft 481 kts 166°
2026-04-21 04:40 47.14647 19.61846 35023 ft 480 kts 166°
2026-04-21 04:40 47.08308 19.64972 35014 ft 480 kts 166°
2026-04-21 04:41 47.01954 19.68096 35022 ft 481 kts 167°
2026-04-21 04:41 46.95642 19.71191 35021 ft 481 kts 167°
2026-04-21 04:42 46.89277 19.74305 35018 ft 481 kts 167°
2026-04-21 04:42 46.82912 19.77411 35019 ft 482 kts 167°
2026-04-21 04:43 46.76585 19.80490 35018 ft 482 kts 167°
2026-04-21 04:43 46.70215 19.83583 35021 ft 482 kts 168°
2026-04-21 04:44 46.63839 19.86669 35015 ft 482 kts 168°
2026-04-21 04:44 46.57504 19.89731 35018 ft 482 kts 168°
2026-04-21 04:45 46.51136 19.92800 35022 ft 482 kts 168°
2026-04-21 04:45 46.44750 19.95871 35014 ft 482 kts 168°
2026-04-21 04:46 46.38373 19.98929 35016 ft 482 kts 168°
2026-04-21 04:46 46.32037 20.01959 35019 ft 482 kts 169°
2026-04-21 04:47 46.25672 20.04999 35018 ft 482 kts 169°
2026-04-21 04:47 46.19299 20.08034 35019 ft 482 kts 169°
2026-04-21 04:48 46.13127 20.12089 35019 ft 494 kts 154°
2026-04-21 04:48 46.07325 20.17402 35016 ft 496 kts 153°
2026-04-21 04:49 46.01512 20.22769 35005 ft 495 kts 153°
2026-04-21 04:49 45.95719 20.28028 35012 ft 495 kts 154°
2026-04-21 04:50 45.89863 20.33276 35015 ft 495 kts 154°
2026-04-21 04:50 45.84047 20.38465 35006 ft 494 kts 154°
2026-04-21 04:51 45.78202 20.43668 35013 ft 494 kts 154°
2026-04-21 04:51 45.72360 20.48858 35004 ft 493 kts 154°
2026-04-21 04:52 45.66553 20.54007 35010 ft 493 kts 154°
2026-04-21 04:52 45.60723 20.59164 35012 ft 492 kts 154°
2026-04-21 04:53 45.54900 20.64299 35005 ft 491 kts 154°
2026-04-21 04:53 45.49088 20.69413 35012 ft 491 kts 154°
2026-04-21 04:54 45.43270 20.74519 35010 ft 490 kts 154°
2026-04-21 04:54 45.37489 20.79583 35012 ft 490 kts 154°
2026-04-21 04:55 45.31671 20.84666 35011 ft 490 kts 154°
2026-04-21 04:55 45.25896 20.89698 35014 ft 490 kts 154°
2026-04-21 04:56 45.20084 20.94751 35020 ft 489 kts 154°
2026-04-21 04:56 45.14269 20.99795 35019 ft 489 kts 154°
2026-04-21 04:57 45.08492 21.04791 35017 ft 489 kts 154°
2026-04-21 04:57 45.02670 21.09813 35021 ft 489 kts 154°
2026-04-21 04:58 44.96849 21.14826 35016 ft 489 kts 154°
2026-04-21 04:58 44.91039 21.19817 35020 ft 488 kts 154°
2026-04-21 04:59 44.85270 21.24762 35021 ft 487 kts 154°
2026-04-21 04:59 44.79478 21.29713 35016 ft 486 kts 154°
2026-04-21 05:00 44.73684 21.34654 35023 ft 486 kts 154°
2026-04-21 05:00 44.65010 21.42029 35033 ft 485 kts 154°
2026-04-21 05:01 44.59268 21.46896 35025 ft 485 kts 154°
2026-04-21 05:01 44.53473 21.51798 35026 ft 483 kts 154°
2026-04-21 05:02 44.47743 21.56635 35031 ft 483 kts 154°
2026-04-21 05:02 44.41976 21.61489 35029 ft 482 kts 153°
2026-04-21 05:03 44.36214 21.66325 35019 ft 482 kts 153°
2026-04-21 05:03 44.30494 21.71121 35023 ft 482 kts 153°
2026-04-21 05:04 44.24734 21.75932 35022 ft 480 kts 153°
2026-04-21 05:04 44.19001 21.80717 35021 ft 479 kts 153°
2026-04-21 05:05 44.13302 21.85459 35018 ft 480 kts 153°
2026-04-21 05:05 44.07575 21.90216 35020 ft 479 kts 153°
2026-04-21 05:06 44.01848 21.94957 35010 ft 478 kts 153°
2026-04-21 05:06 43.96133 21.99684 35015 ft 477 kts 153°
2026-04-21 05:07 43.90409 22.04404 35011 ft 477 kts 153°
2026-04-21 05:07 43.84729 22.09074 35014 ft 478 kts 154°
2026-04-21 05:08 43.78995 22.13788 35005 ft 478 kts 154°
2026-04-21 05:08 43.73265 22.18478 35018 ft 479 kts 154°
2026-04-21 05:09 43.67519 22.23171 35013 ft 479 kts 154°
2026-04-21 05:09 43.61813 22.27823 35023 ft 478 kts 154°
2026-04-21 05:10 43.56066 22.32502 35017 ft 479 kts 154°
2026-04-21 05:10 43.50308 22.37178 35017 ft 479 kts 154°
2026-04-21 05:11 43.44603 22.41800 35018 ft 479 kts 154°
2026-04-21 05:11 43.38847 22.46452 35022 ft 479 kts 154°
2026-04-21 05:12 43.33076 22.51104 35022 ft 481 kts 154°
2026-04-21 05:12 43.27331 22.55715 35012 ft 480 kts 154°
2026-04-21 05:13 43.21549 22.60361 35007 ft 481 kts 154°
2026-04-21 05:13 43.15763 22.65005 35003 ft 481 kts 154°
2026-04-21 05:14 43.10009 22.69605 35002 ft 482 kts 154°
2026-04-21 05:14 43.04213 22.74229 34984 ft 482 kts 154°
2026-04-21 05:15 42.99387 22.78073 35010 ft 481 kts 154°
2026-04-21 05:15 42.93670 22.82871 34992 ft 484 kts 150°
2026-04-21 05:16 42.88120 22.87992 34992 ft 484 kts 149°
2026-04-21 05:16 42.82553 22.93160 34998 ft 483 kts 150°
2026-04-21 05:17 42.76973 22.98271 34996 ft 483 kts 150°
2026-04-21 05:17 42.71381 23.03347 34994 ft 482 kts 150°
2026-04-21 05:18 42.65823 23.08373 34983 ft 482 kts 150°
2026-04-21 05:18 42.60245 23.13412 34997 ft 481 kts 150°
2026-04-21 05:19 42.54664 23.18443 34987 ft 481 kts 150°
2026-04-21 05:19 42.49086 23.23462 34986 ft 481 kts 150°
2026-04-21 05:20 42.43505 23.28473 34998 ft 481 kts 150°
2026-04-21 05:20 42.37957 23.33445 34997 ft 481 kts 150°
2026-04-21 05:21 42.32378 23.38433 34995 ft 481 kts 150°
2026-04-21 05:21 42.26811 23.43472 34988 ft 482 kts 148°
2026-04-21 05:22 42.21350 23.48744 34997 ft 483 kts 147°
2026-04-21 05:22 42.15894 23.54057 34973 ft 483 kts 148°
2026-04-21 05:23 42.10435 23.59319 34983 ft 482 kts 148°
2026-04-21 05:23 42.05009 23.64511 34984 ft 481 kts 148°
2026-04-21 05:24 41.99555 23.69713 34980 ft 481 kts 148°
2026-04-21 05:24 41.94085 23.74920 34969 ft 480 kts 148°
2026-04-21 05:25 41.88628 23.80106 34971 ft 480 kts 148°
2026-04-21 05:25 41.83203 23.85252 34967 ft 480 kts 148°
2026-04-21 05:26 41.77742 23.90419 34979 ft 479 kts 148°
2026-04-21 05:26 41.72285 23.95575 34971 ft 479 kts 148°
2026-04-21 05:27 41.66828 24.00718 34962 ft 480 kts 148°
2026-04-21 05:27 41.61394 24.05828 34967 ft 479 kts 148°
2026-04-21 05:28 41.55908 24.10940 34963 ft 479 kts 151°
2026-04-21 05:28 41.49968 24.14573 34975 ft 470 kts 165°
2026-04-21 05:29 41.43773 24.17401 34961 ft 470 kts 166°
2026-04-21 05:29 41.37575 24.20233 34954 ft 471 kts 166°
2026-04-21 05:30 41.31378 24.23114 34950 ft 471 kts 165°
2026-04-21 05:30 41.25181 24.26017 34952 ft 471 kts 165°
2026-04-21 05:31 41.19025 24.28902 34939 ft 471 kts 165°
2026-04-21 05:31 41.12849 24.31788 34951 ft 471 kts 165°
2026-04-21 05:32 41.06663 24.34671 34942 ft 471 kts 165°
2026-04-21 05:32 41.00510 24.37535 34940 ft 471 kts 165°
2026-04-21 05:33 40.94311 24.40412 34936 ft 471 kts 165°
2026-04-21 05:33 40.88127 24.43277 34944 ft 471 kts 165°
2026-04-21 05:34 40.81934 24.46141 34942 ft 471 kts 165°
2026-04-21 05:34 40.75771 24.48985 34943 ft 471 kts 165°
2026-04-21 05:35 40.69570 24.51838 34943 ft 471 kts 165°
2026-04-21 05:35 40.63371 24.54688 34939 ft 471 kts 165°
2026-04-21 05:36 40.57218 24.57509 34946 ft 471 kts 165°
2026-04-21 05:36 40.51006 24.60354 34939 ft 471 kts 165°
2026-04-21 05:37 40.44848 24.63168 34946 ft 471 kts 165°
2026-04-21 05:37 40.38651 24.65995 34933 ft 471 kts 165°
2026-04-21 05:38 40.32451 24.68817 34941 ft 471 kts 165°
2026-04-21 05:38 40.26252 24.71633 34934 ft 471 kts 165°
2026-04-21 05:39 40.20097 24.74428 34930 ft 471 kts 165°
2026-04-21 05:39 40.13883 24.77237 34938 ft 471 kts 165°
2026-04-21 05:40 40.07682 24.80037 34935 ft 471 kts 165°
2026-04-21 05:40 40.01514 24.82813 34935 ft 471 kts 165°
2026-04-21 05:41 39.95317 24.85602 34937 ft 471 kts 165°
2026-04-21 05:41 39.89113 24.88391 34943 ft 471 kts 165°
2026-04-21 05:42 39.82918 24.91170 34945 ft 470 kts 165°
2026-04-21 05:42 39.76756 24.93926 34941 ft 470 kts 165°
2026-04-21 05:43 39.70554 24.96693 34943 ft 470 kts 165°
2026-04-21 05:43 39.64363 24.99451 34947 ft 470 kts 165°
2026-04-21 05:44 39.58213 25.02185 34944 ft 470 kts 166°
2026-04-21 05:44 39.52020 25.04934 34944 ft 470 kts 166°
2026-04-21 05:45 39.45825 25.07681 34941 ft 470 kts 166°
2026-04-21 05:45 39.39638 25.10420 34942 ft 469 kts 166°
2026-04-21 05:46 39.33482 25.13137 34947 ft 469 kts 166°
2026-04-21 05:46 39.27287 25.15865 34943 ft 469 kts 166°
2026-04-21 05:47 39.21088 25.18591 34942 ft 469 kts 166°
2026-04-21 05:47 39.14927 25.21296 34945 ft 469 kts 165°
2026-04-21 05:48 39.08736 25.24009 34956 ft 469 kts 166°
2026-04-21 05:48 39.02597 25.26694 34957 ft 469 kts 165°
2026-04-21 05:49 38.96423 25.29384 34960 ft 468 kts 166°
2026-04-21 05:49 38.90224 25.32087 34967 ft 469 kts 165°
2026-04-21 05:50 38.84041 25.34781 34960 ft 469 kts 165°
2026-04-21 05:50 38.77900 25.37446 34964 ft 469 kts 165°
2026-04-21 05:51 38.71709 25.40128 34962 ft 469 kts 165°
2026-04-21 05:51 38.65515 25.42807 34964 ft 469 kts 165°
2026-04-21 05:52 38.59326 25.45479 34963 ft 470 kts 165°
2026-04-21 05:52 38.53160 25.48139 34962 ft 470 kts 165°
2026-04-21 05:53 38.46952 25.50808 34963 ft 470 kts 165°
2026-04-21 05:53 38.40748 25.53473 34963 ft 471 kts 165°
2026-04-21 05:54 38.34526 25.56139 34963 ft 471 kts 165°
2026-04-21 05:54 38.28300 25.58803 34964 ft 471 kts 165°
2026-04-21 05:55 38.22128 25.61440 34970 ft 471 kts 165°
2026-04-21 05:55 38.15907 25.64093 34972 ft 470 kts 165°
2026-04-21 05:56 38.09695 25.66737 34972 ft 470 kts 165°
2026-04-21 05:56 38.03528 25.69356 34973 ft 470 kts 165°
2026-04-21 05:57 37.97314 25.71990 34970 ft 470 kts 165°
2026-04-21 05:57 37.91099 25.74622 34975 ft 470 kts 165°
2026-04-21 05:58 37.84932 25.77229 34972 ft 470 kts 165°
2026-04-21 05:58 37.78729 25.79845 34969 ft 469 kts 165°
2026-04-21 05:59 37.72525 25.82457 34973 ft 469 kts 165°
2026-04-21 06:00 37.63262 25.86348 34973 ft 469 kts 165°
2026-04-21 06:00 37.57063 25.88946 34973 ft 470 kts 165°
2026-04-21 06:01 37.50849 25.91545 34971 ft 470 kts 165°
2026-04-21 06:01 37.44635 25.94140 34973 ft 470 kts 165°
2026-04-21 06:02 37.38403 25.96741 34960 ft 472 kts 166°
2026-04-21 06:02 37.32127 25.99350 34985 ft 482 kts 166°
2026-04-21 06:03 37.25738 26.02003 34972 ft 484 kts 166°
2026-04-21 06:03 37.19350 26.04657 34970 ft 483 kts 166°
2026-04-21 06:04 37.14034 26.06861 34971 ft 483 kts 166°
2026-04-21 06:04 37.06622 26.09926 34970 ft 481 kts 166°
2026-04-21 06:05 37.01327 26.12111 34975 ft 480 kts 166°
2026-04-21 06:05 36.94986 26.14723 34981 ft 479 kts 166°
2026-04-21 06:06 36.88640 26.17333 34983 ft 479 kts 166°
2026-04-21 06:06 36.82302 26.19935 34980 ft 479 kts 166°
2026-04-21 06:07 36.75973 26.22528 34995 ft 478 kts 166°
2026-04-21 06:07 36.69684 26.25099 34986 ft 479 kts 166°
2026-04-21 06:08 36.63343 26.27688 35000 ft 479 kts 167°
2026-04-21 06:08 36.57007 26.30275 34999 ft 479 kts 167°
2026-04-21 06:09 36.50691 26.32845 35001 ft 480 kts 167°
2026-04-21 06:09 36.44331 26.35428 34985 ft 480 kts 167°
2026-04-21 06:10 36.37966 26.38009 34986 ft 480 kts 167°
2026-04-21 06:10 36.31605 26.40585 35010 ft 480 kts 167°
2026-04-21 06:11 36.25246 26.43155 35004 ft 481 kts 167°
2026-04-21 06:11 36.18910 26.45711 35000 ft 482 kts 167°
2026-04-21 06:12 36.12515 26.48288 34996 ft 482 kts 167°
2026-04-21 06:12 36.06135 26.50855 35007 ft 481 kts 167°
2026-04-21 06:13 35.99797 26.53398 35012 ft 481 kts 167°
2026-04-21 06:13 35.93421 26.55953 35006 ft 481 kts 167°
2026-04-21 06:14 35.87041 26.58507 35005 ft 482 kts 167°
2026-04-21 06:14 35.80698 26.61040 35012 ft 481 kts 167°
2026-04-21 06:15 35.74317 26.63584 35011 ft 481 kts 167°
2026-04-21 06:15 35.67932 26.66125 35014 ft 481 kts 167°
2026-04-21 06:16 35.61597 26.68642 35015 ft 480 kts 167°
2026-04-21 06:16 35.55239 26.71164 35018 ft 480 kts 167°
2026-04-21 06:17 35.48877 26.73685 35018 ft 480 kts 167°
2026-04-21 06:17 35.42512 26.76203 35019 ft 480 kts 167°
2026-04-21 06:18 35.36154 26.78712 35018 ft 480 kts 167°
2026-04-21 06:18 35.29829 26.81205 35020 ft 480 kts 167°
2026-04-21 06:19 35.23472 26.83706 35021 ft 479 kts 168°
2026-04-21 06:19 35.17117 26.86202 35023 ft 479 kts 168°
2026-04-21 06:20 35.10807 26.88676 35015 ft 478 kts 168°
2026-04-21 06:20 35.04473 26.91157 35015 ft 478 kts 168°
2026-04-21 06:21 34.98140 26.93633 35018 ft 478 kts 168°
2026-04-21 06:21 34.91804 26.96104 35028 ft 478 kts 168°
2026-04-21 06:22 34.85498 26.98560 35026 ft 477 kts 168°
2026-04-21 06:22 34.79159 27.01027 35028 ft 477 kts 168°
2026-04-21 06:23 34.72826 27.03486 35026 ft 477 kts 168°
2026-04-21 06:23 34.66529 27.05927 35028 ft 477 kts 168°
2026-04-21 06:24 34.60194 27.08380 35031 ft 478 kts 168°
2026-04-21 06:24 34.53853 27.10831 35027 ft 478 kts 168°
2026-04-21 06:25 34.47498 27.13283 35028 ft 479 kts 168°
2026-04-21 06:25 34.41171 27.15722 35030 ft 480 kts 168°
2026-04-21 06:26 34.34787 27.18178 35020 ft 480 kts 168°
2026-04-21 06:26 34.28444 27.20612 35020 ft 480 kts 168°
2026-04-21 06:27 34.22060 27.23060 35019 ft 481 kts 169°
2026-04-21 06:27 34.15673 27.25505 35017 ft 481 kts 169°
2026-04-21 06:28 34.09299 27.27943 35026 ft 480 kts 169°
2026-04-21 06:28 34.02922 27.30378 35028 ft 480 kts 169°
2026-04-21 06:29 33.96585 27.32835 35027 ft 483 kts 166°
2026-04-21 06:29 33.93506 27.34536 35022 ft 491 kts 155°
2026-04-21 06:29 33.90608 27.36772 35042 ft 495 kts 151°
2026-04-21 06:30 33.84901 27.41474 35025 ft 496 kts 151°
2026-04-21 06:30 33.79207 27.46157 35027 ft 495 kts 151°
2026-04-21 06:31 33.73538 27.50744 35031 ft 494 kts 152°
2026-04-21 06:31 33.67815 27.55336 35039 ft 494 kts 152°
2026-04-21 06:32 33.62094 27.59909 35036 ft 493 kts 152°
2026-04-21 06:32 33.56416 27.64443 35040 ft 492 kts 152°
2026-04-21 06:33 33.50698 27.69002 35047 ft 492 kts 152°
2026-04-21 06:33 33.45029 27.73518 35045 ft 492 kts 152°
2026-04-21 06:34 33.39313 27.78065 35049 ft 493 kts 152°
2026-04-21 06:34 33.33588 27.82612 35047 ft 493 kts 152°
2026-04-21 06:35 33.27871 27.87144 35048 ft 493 kts 152°
2026-04-21 06:35 33.22150 27.91671 35058 ft 493 kts 152°
2026-04-21 06:36 33.16445 27.96181 35054 ft 493 kts 152°
2026-04-21 06:36 33.10713 28.00705 35059 ft 494 kts 153°
2026-04-21 06:37 33.05006 28.05202 35055 ft 494 kts 153°
2026-04-21 06:37 32.99253 28.09726 35054 ft 495 kts 153°
2026-04-21 06:38 32.93495 28.14247 35064 ft 495 kts 153°
2026-04-21 06:38 32.87777 28.18730 35068 ft 495 kts 153°
2026-04-21 06:39 32.82014 28.23240 35066 ft 495 kts 153°
2026-04-21 06:39 32.76246 28.27748 35062 ft 495 kts 153°
2026-04-21 06:40 32.70473 28.32252 35061 ft 495 kts 153°
2026-04-21 06:40 32.64747 28.36715 35065 ft 495 kts 154°
2026-04-21 06:41 32.58978 28.41204 35063 ft 495 kts 154°
2026-04-21 06:41 32.53220 28.45676 35063 ft 494 kts 154°
2026-04-21 06:42 32.47496 28.50115 35083 ft 494 kts 154°
2026-04-21 06:42 32.41730 28.54580 35077 ft 494 kts 154°
2026-04-21 06:43 32.35970 28.59034 35082 ft 494 kts 154°